Flag for Germany Weather past 2 weeks in Rotenburg (Wümme), Lower Saxony, Germany

Now
57 °F

Passing clouds.


Feels Like: 56 °F
Forecast: 46 / 73 °F
Wind: 6 mph from West

Location: Bremen

Current Time: Jul 31, 2015 at 9:58:02 AM

Latest Report: Jul 31, 2015 at 9:00 AM


Visibility: 25 mi

Pressure: 30.09 "Hg

Humidity: 71%

Dew point: 47 °F

Location of Rotenburg (Wümme)Location

Historic Weather in Rotenburg (Wümme) — Graph

°F

Rotenburg (Wümme) temperature yesterday

Maximum temperature yesterday: 63 °F (at 6:00 PM)
Minimum temperature yesterday: 55 °F (at 1:00 AM)
Average temperature yesterday: 58 °F

Past Weeks' High & Low Weather Summary

 TemperatureHumidityPressure
High87 °F (Jul 17, 3:00 PM)99% (Jul 25, 7:00 AM)30.11 "Hg (Jul 25, 7:00 AM)
Low51 °F (Jul 20, 4:00 AM)42% (Jul 17, 4:00 PM)29.41 "Hg (Jul 25, 7:00 PM)
Average63 °F76%29.82 "Hg
* Reported Jul 16 9:00 AM — Jul 31 9:00 AM, Rotenburg (Wümme), Weather by CustomWeather, © 2015

Note: Actual official high and low records may vary slightly from our data, if they occured in-between our weather recording intervals... More about our weather records

Advertising

Rotenburg (Wümme) weather history for previous 24 hours

 ConditionsComfort  
Time TempWeatherWind HumidityBarometerVisibility
9:00 AM
Fri, Jul 31
57 °FPassing clouds.6 mph71%30.09 "Hg25 mi
8:00 AM55 °FPartly sunny.6 mph77%30.08 "Hg25 mi
7:00 AM53 °FPartly sunny.6 mph83%30.06 "Hg19 mi
5:00 AM53 °FOvercast.5 mph85%30.05 "Hg19 mi
4:00 AM53 °FOvercast.6 mph90%30.05 "Hg19 mi
3:00 AM53 °FCool.6 mph87%30.04 "HgN/A
2:00 AM54 °FOvercast.5 mph81%30.03 "Hg19 mi
1:00 AM53 °FPassing clouds.5 mph86%30.03 "Hg19 mi
10:00 PM
Thu, Jul 30
55 °FPassing clouds.5 mph77%30.00 "Hg19 mi
9:00 PM57 °FScattered clouds.6 mph74%29.98 "Hg19 mi
8:00 PM59 °FPartly sunny.8 mph66%29.97 "Hg19 mi
7:00 PM60 °FPartly sunny.8 mph66%29.96 "Hg22 mi
6:00 PM63 °FOvercast.9 mph62%29.94 "Hg22 mi
4:00 PM57 °FOvercast.9 mph78%29.92 "Hg19 mi
3:00 PM62 °FOvercast.10 mph69%29.90 "Hg19 mi
2:00 PM63 °FPartly sunny.10 mph66%29.88 "Hg19 mi
1:00 PM58 °FOvercast.10 mph78%29.88 "Hg19 mi
12:00 PM59 °FOvercast.7 mph78%29.86 "Hg19 mi
10:00 AM58 °FCool.12 mph72%29.83 "HgN/A
9:00 AM58 °FPartly sunny.12 mph75%29.81 "Hg22 mi
Weather by CustomWeather, © 2015

See weather overviewHow to use our weather pages